Terminal Aerodrome Forecast
Issued by NWS Green Bay, WI

Home | Current Version | Previous Version | Graphics & Text | Print | Product List | Glossary On
Versions: 1 2 3 4 5 6 7 8 9 10 11 12 13 14 15 16 17 18 19 20 21 22 23 24 25 26 27 28 29 30 31
000
FTUS43 KGRB 212305 AAB
TAFGRB
TAF AMD
KGRB 212305Z 2123/2218 03012G20KT P6SM -SHRA BKN090 BKN120
     FM220100 04009KT P6SM SCT100
     FM220800 36003KT P6SM SKC
     FM221500 02005KT P6SM SKC=

USA.gov is the U.S. government's official web portal to all federal, state and local government web resources and services.